LIGHTSAIL 2 (44420 NORAD) Tracking and Keplerian Element Data

This shows tracking and keplerian element data for the satellite.

Feedback or suggestion? Click here.




ElementValue
Catalog44420
NameLIGHTSAIL 2
Epoch Orbit3899
Epoch Day91.83901436
Epoch Year2020
RAAN237.9933
Inclination24.0105
Eccentricity0.0023194
Argument of Perigee353.8247
Mean Anonmoly6.1948
Mean Motion14.54957979
Decay Rate4.89E-05
L11 44420U 19036AC 20091.83901436 .00004890 00000-0 10624-2 0 9995
L22 44420 24.0105 237.9933 0023194 353.8247 6.1948 14.54957979 38992

Live tracking and technical data element details for LIGHTSAIL 2 (NORAD 44420). LIGHTSAIL 2 can be tracked NOW for your location showing map with azimuth and elevation plus other details from your city location.

Track the satellite on the map from your city or location and see movement details for azimuth, elevation, latitude, longitude, range, height, and movement on the map or in text.







IsCatalogInMostPopularTable: catalog: 44420, numindb: 328
Update: records affected: 1



GetName: 44420 LIGHTSAIL 2

Hit Count: updated at: Thu, 02 Apr 2020 12:28:39 GMT